#�ϑ�����,���ϕ���,���ϕ���,�ő啗��,�ő啗����������,�ő�u�ԕ���,�ő�u�ԕ�����������
#(�N����),(m/s)   ,(16����),(m/s)   ,(16����)        ,(m/s)       ,(16����)            
2018/11/14 0:01,7,16,7.2,16,13.9,15
2018/11/14 0:02,7,16,7,16,10,15
2018/11/14 0:03,7,16,7,16,12.5,16
2018/11/14 0:04,7.1,16,7.1,16,13.6,16
2018/11/14 0:05,7.2,16,7.2,16,14.3,1
2018/11/14 0:06,7.3,16,7.3,16,16,16
2018/11/14 0:07,7.3,16,7.4,16,12.1,16
2018/11/14 0:08,7.1,16,7.3,16,11.4,16
2018/11/14 0:09,7.1,16,7.2,16,9.7,15
2018/11/14 0:10,7.2,16,7.2,16,10.6,1
2018/11/14 0:11,7.2,16,7.2,16,9.9,15
2018/11/14 0:12,7.3,16,7.3,16,11.8,16
2018/11/14 0:13,7.3,16,7.4,16,10.2,15
2018/11/14 0:14,7,16,7.2,16,10.9,15
2018/11/14 0:15,6.7,16,7,16,11.9,16
2018/11/14 0:16,6.6,16,6.8,16,13.2,16
2018/11/14 0:17,6.6,16,6.6,16,13.1,1
2018/11/14 0:18,6.8,16,6.8,16,11.4,1
2018/11/14 0:19,6.7,16,6.7,16,12.3,16
2018/11/14 0:20,6.8,16,6.8,16,11.3,16
2018/11/14 0:21,6.8,16,6.8,16,11,16
2018/11/14 0:22,6.8,16,6.8,16,9.9,15
2018/11/14 0:23,6.8,16,6.8,16,11.5,16
2018/11/14 0:24,6.9,16,6.9,16,13.9,16
2018/11/14 0:25,6.8,16,6.9,16,9.7,16
2018/11/14 0:26,7,16,7,16,12.6,15
2018/11/14 0:27,6.9,16,6.9,16,12.4,16
2018/11/14 0:28,6.9,16,7,16,12.7,16
2018/11/14 0:29,7,16,7,16,11.4,16
2018/11/14 0:30,6.9,16,7.1,16,12.6,1
2018/11/14 0:31,6.8,16,6.9,16,9,16
2018/11/14 0:32,6.8,16,6.9,16,11.7,15
2018/11/14 0:33,6.9,16,6.9,16,13.6,16
2018/11/14 0:34,6.8,16,6.9,16,9.4,16
2018/11/14 0:35,6.6,16,6.8,16,7.8,1
2018/11/14 0:36,6.3,16,6.6,16,10.1,16
2018/11/14 0:37,6.3,16,6.3,16,10.7,16
2018/11/14 0:38,6.2,16,6.2,16,9.8,1
2018/11/14 0:39,6.1,16,6.2,16,8.9,16
2018/11/14 0:40,6.1,16,6.1,16,10.9,16
2018/11/14 0:41,6.1,16,6.1,16,9.3,15
2018/11/14 0:42,6,16,6.1,16,7.6,15
2018/11/14 0:43,5.9,16,6,16,10.2,1
2018/11/14 0:44,5.9,16,5.9,16,9.9,16
2018/11/14 0:45,6.2,16,6.2,16,9.9,15
2018/11/14 0:46,6.3,16,6.3,16,13,15
2018/11/14 0:47,6.1,16,6.3,16,10.6,15
2018/11/14 0:48,6,16,6.1,16,11.9,1
2018/11/14 0:49,6,16,6,16,9,1
2018/11/14 0:50,5.7,16,6,16,9.1,16
2018/11/14 0:51,5.7,16,5.7,16,9.5,15
2018/11/14 0:52,5.6,16,5.7,16,8.4,2
2018/11/14 0:53,5.5,16,5.6,16,7.1,15
2018/11/14 0:54,5.6,16,5.6,16,12.2,16
2018/11/14 0:55,5.3,16,5.5,16,9.8,16
2018/11/14 0:56,5.3,16,5.4,16,13.4,1
2018/11/14 0:57,5.4,16,5.5,16,11.8,16
2018/11/14 0:58,5.4,16,5.4,16,10.7,16
2018/11/14 0:59,5.6,16,5.6,16,10.2,16
2018/11/14 1:00,5.8,16,5.8,16,10.1,1
2018/11/14 1:01,5.6,16,5.8,16,6.5,16
2018/11/14 1:02,5.7,16,5.7,16,7.7,15
2018/11/14 1:03,5.7,16,5.7,16,9.8,16
2018/11/14 1:04,5.5,16,5.7,16,9.2,15
2018/11/14 1:05,5.5,16,5.5,16,6.7,15
2018/11/14 1:06,5.3,16,5.5,16,8.4,15
2018/11/14 1:07,5.1,16,5.3,16,6.7,16
2018/11/14 1:08,5,16,5.1,16,6.7,16
2018/11/14 1:09,4.7,16,4.9,16,7,16
2018/11/14 1:10,4.5,16,4.6,16,8.3,2
2018/11/14 1:11,4.7,16,4.7,16,10.8,15
2018/11/14 1:12,4.8,16,4.9,16,9.1,16
2018/11/14 1:13,4.6,16,4.8,16,5.6,16
2018/11/14 1:14,4.6,16,4.6,16,8.9,15
2018/11/14 1:15,4.6,16,4.7,16,9.2,16
2018/11/14 1:16,4.6,16,4.6,16,6.3,15
2018/11/14 1:17,4.5,16,4.6,16,4.8,15
2018/11/14 1:18,4.4,15,4.5,16,4.9,15
2018/11/14 1:19,4.4,15,4.4,16,7.4,15
2018/11/14 1:20,4.3,15,4.4,16,7.6,15
2018/11/14 1:21,3.9,15,4.3,16,4.1,15
2018/11/14 1:22,3.7,15,3.9,16,4.2,15
2018/11/14 1:23,3.6,15,3.7,16,4.7,16
2018/11/14 1:24,3.3,16,3.6,16,3.8,16
2018/11/14 1:25,3.1,15,3.3,16,4.5,1
2018/11/14 1:26,3,15,3.1,16,6.1,16
2018/11/14 1:27,3,15,3,16,5.4,16
2018/11/14 1:28,3,16,3,15,6.2,16
2018/11/14 1:29,2.9,16,3,15,4.2,16
2018/11/14 1:30,2.9,16,2.9,15,9.3,16
2018/11/14 1:31,3.5,16,3.5,15,14.3,16
2018/11/14 1:32,3.6,16,3.6,15,7,15
2018/11/14 1:33,3.8,16,3.8,16,9.3,16
2018/11/14 1:34,4.2,16,4.2,16,10.1,1
2018/11/14 1:35,4.6,16,4.6,16,10.5,1
2018/11/14 1:36,5,16,5,16,10.9,15
2018/11/14 1:37,5.2,16,5.2,16,8.6,15
2018/11/14 1:38,5.7,16,5.7,16,10.8,16
2018/11/14 1:39,5.9,16,5.9,16,8.3,16
2018/11/14 1:40,6.1,16,6.1,16,11.1,16
2018/11/14 1:41,6,16,6.1,16,11.6,16
2018/11/14 1:42,6.2,16,6.2,16,10.2,16
2018/11/14 1:43,6.4,16,6.4,16,12.4,16
2018/11/14 1:44,6.4,16,6.5,16,10.9,16
2018/11/14 1:45,6.4,16,6.4,16,11,15
2018/11/14 1:46,6.3,16,6.5,16,9.4,16
2018/11/14 1:47,6.2,16,6.3,16,6.7,15
2018/11/14 1:48,6.1,16,6.2,16,10.2,16
2018/11/14 1:49,6.2,16,6.2,16,10.5,1
2018/11/14 1:50,6,16,6.2,16,11.8,16
2018/11/14 1:51,5.9,16,6,16,8.7,16
2018/11/14 1:52,6,16,6,16,10.1,16
2018/11/14 1:53,5.8,16,6,16,7.5,15
2018/11/14 1:54,5.8,16,5.9,16,12.4,15
2018/11/14 1:55,5.7,16,5.8,16,10.9,15
2018/11/14 1:56,5.7,16,5.7,16,10.5,1
2018/11/14 1:57,5.9,16,5.9,16,10.6,1
2018/11/14 1:58,5.9,16,6,16,12.5,16
2018/11/14 1:59,6,16,6,16,10.1,16
2018/11/14 2:00,5.9,16,6,16,9.3,16
2018/11/14 2:01,6,16,6,16,12.7,1
2018/11/14 2:02,6.3,16,6.3,16,13.1,16
2018/11/14 2:03,6.4,16,6.4,16,9.8,16
2018/11/14 2:04,6.2,16,6.4,16,7.6,15
2018/11/14 2:05,6.1,16,6.2,16,7.6,16
2018/11/14 2:06,6.1,16,6.2,16,11.3,1
2018/11/14 2:07,6,16,6.1,16,9.4,16
2018/11/14 2:08,5.7,16,5.9,16,7.6,16
2018/11/14 2:09,5.4,16,5.7,16,9,16
2018/11/14 2:10,5.3,16,5.5,16,7.9,16
2018/11/14 2:11,5,16,5.2,16,4.9,15
2018/11/14 2:12,4.2,16,4.9,16,4.5,15
2018/11/14 2:13,3.8,16,4.2,16,1.9,1
2018/11/14 2:14,3.5,16,3.8,16,3.5,16
2018/11/14 2:15,3.3,16,3.5,16,5.8,14
2018/11/14 2:16,2.8,16,3.3,16,2.9,14
2018/11/14 2:17,2.5,16,2.7,16,2.9,13
2018/11/14 2:18,2.4,16,2.5,16,5.4,2
2018/11/14 2:19,2.3,16,2.4,16,10.1,15
2018/11/14 2:20,2.5,16,2.5,16,10,1
2018/11/14 2:21,2.9,16,2.9,16,13.1,2
2018/11/14 2:22,3.2,16,3.2,16,7.4,2
2018/11/14 2:23,3.3,16,3.3,16,5.4,1
2018/11/14 2:24,3.5,16,3.5,16,5.8,16
2018/11/14 2:25,3.7,16,3.7,16,7.9,16
2018/11/14 2:26,4,16,4,16,6.4,15
2018/11/14 2:27,4.2,16,4.2,16,5.7,16
2018/11/14 2:28,4.4,16,4.4,16,8.4,1
2018/11/14 2:29,4.4,16,4.5,16,8.4,2
2018/11/14 2:30,4.2,16,4.4,16,5.5,16
2018/11/14 2:31,3.7,16,4.2,16,4.4,16
2018/11/14 2:32,3.6,16,3.7,16,7.4,16
2018/11/14 2:33,3.6,16,3.6,16,6.9,15
2018/11/14 2:34,3.6,16,3.6,16,4.9,1
2018/11/14 2:35,3.6,16,3.6,16,9,16
2018/11/14 2:36,3.8,16,3.8,16,7.7,15
2018/11/14 2:37,3.7,16,3.8,16,5.7,14
2018/11/14 2:38,3.6,16,3.7,16,5,1
2018/11/14 2:39,3.5,16,3.6,16,7.9,16
2018/11/14 2:40,3.4,16,3.5,16,4.3,16
2018/11/14 2:41,3.6,16,3.6,16,5.7,16
2018/11/14 2:42,3.5,16,3.6,16,6.1,14
2018/11/14 2:43,3.5,16,3.5,16,7.4,1
2018/11/14 2:44,3.6,16,3.6,16,7.7,16
2018/11/14 2:45,3.5,16,3.6,16,9.2,16
2018/11/14 2:46,3.3,16,3.5,16,4.7,14
2018/11/14 2:47,3.5,16,3.5,16,7.5,14
2018/11/14 2:48,3.6,16,3.6,16,6.7,16
2018/11/14 2:49,3.7,16,3.7,16,7.4,16
2018/11/14 2:50,3.9,16,3.9,16,8.5,2
2018/11/14 2:51,3.8,16,3.9,16,6.8,16
2018/11/14 2:52,3.8,16,3.8,16,4.7,16
2018/11/14 2:53,3.8,16,3.8,16,6.4,16
2018/11/14 2:54,3.8,16,3.9,16,8.6,1
2018/11/14 2:55,3.7,16,3.8,16,7.4,16
2018/11/14 2:56,3.7,16,3.8,16,5,1
2018/11/14 2:57,3.6,16,3.8,16,6.1,1
2018/11/14 2:58,3.4,16,3.6,16,4.7,16
2018/11/14 2:59,3.2,16,3.3,16,5.5,16
2018/11/14 3:00,3.1,16,3.2,16,5.4,15
2018/11/14 3:01,3,16,3.1,16,5,14
2018/11/14 3:02,3.2,16,3.2,16,8.7,16
2018/11/14 3:03,3.4,16,3.4,16,9.2,16
2018/11/14 3:04,3.4,16,3.4,16,6.8,16
2018/11/14 3:05,3.5,16,3.5,16,9,16
2018/11/14 3:06,3.7,15,3.7,16,8.9,15
2018/11/14 3:07,3.8,15,3.8,15,9.2,14
2018/11/14 3:08,4.2,15,4.2,15,10.9,14
2018/11/14 3:09,4.5,15,4.5,15,9.8,15
2018/11/14 3:10,4.6,15,4.6,15,6.5,14
2018/11/14 3:11,4.9,15,4.9,15,8.4,15
2018/11/14 3:12,5,15,5,15,9.4,16
2018/11/14 3:13,5.1,15,5.1,15,9.8,14
2018/11/14 3:14,5.2,15,5.2,15,8.2,15
2018/11/14 3:15,5.2,15,5.2,15,9,16
2018/11/14 3:16,5.3,15,5.3,15,10.6,15
2018/11/14 3:17,5.3,15,5.4,15,7.1,13
2018/11/14 3:18,5,15,5.3,15,6.8,14
2018/11/14 3:19,4.8,15,5,15,7,16
2018/11/14 3:20,4.8,15,4.8,15,5.8,16
2018/11/14 3:21,4.6,15,4.8,15,4.8,15
2018/11/14 3:22,4.4,15,4.5,15,6.3,16
2018/11/14 3:23,4,15,4.3,15,5.8,16
2018/11/14 3:24,4,15,4,15,7.1,15
2018/11/14 3:25,4,15,4.1,15,7.4,16
2018/11/14 3:26,3.6,16,3.9,15,4.9,16
2018/11/14 3:27,3.3,16,3.6,15,2.5,3
2018/11/14 3:28,3.1,16,3.2,15,3.5,15
2018/11/14 3:29,3.3,16,3.3,15,7.1,16
2018/11/14 3:30,3.3,16,3.3,15,5.6,16
2018/11/14 3:31,3.4,16,3.4,15,4.9,15
2018/11/14 3:32,3.2,16,3.4,15,3.5,14
2018/11/14 3:33,2.9,16,3.2,15,2.2,14
2018/11/14 3:34,2.6,15,2.9,15,1.4,10
2018/11/14 3:35,2.3,16,2.5,15,2.1,2
2018/11/14 3:36,2.2,16,2.3,16,3.6,2
2018/11/14 3:37,2.3,16,2.3,16,2.7,1
2018/11/14 3:38,2.2,16,2.3,16,1.5,14
2018/11/14 3:39,1.7,16,2.2,16,0.9,1
2018/11/14 3:40,1.5,16,1.7,16,2.9,16
2018/11/14 3:41,1.4,1,1.5,16,6.3,2
2018/11/14 3:42,1.6,1,1.6,15,7.6,16
2018/11/14 3:43,1.7,1,1.7,16,4.2,2
2018/11/14 3:44,1.8,1,1.8,15,2.9,16
2018/11/14 3:45,1.7,1,1.8,16,1.3,15
2018/11/14 3:46,1.6,1,1.7,16,2.4,8
2018/11/14 3:47,1.5,1,1.6,16,1.8,8
2018/11/14 3:48,1.4,2,1.4,16,0.5,4
2018/11/14 3:49,1.4,2,1.4,1,0.5,3
2018/11/14 3:50,1.2,3,1.3,1,0.9,10
2018/11/14 3:51,1.1,3,1.2,1,2.1,10
2018/11/14 3:52,0.9,8,1.1,1,1.9,10
2018/11/14 3:53,0.8,9,0.9,1,2.9,10
2018/11/14 3:54,0.8,10,0.8,1,1.9,10
2018/11/14 3:55,1,10,1,1,3.3,12
2018/11/14 3:56,1.1,10,1.1,1,3.5,10
2018/11/14 3:57,1.2,11,1.2,1,3.5,10
2018/11/14 3:58,1.5,11,1.5,11,4.8,12
2018/11/14 3:59,1.8,11,1.8,11,4.9,16
2018/11/14 4:00,2.1,12,2.1,12,5.2,15
2018/11/14 4:01,2.3,12,2.3,12,4.7,15
2018/11/14 4:02,2.6,13,2.6,13,6.4,14
2018/11/14 4:03,2.9,13,2.9,13,9.1,14
2018/11/14 4:04,2.9,14,2.9,13,3,4
2018/11/14 4:05,2.7,14,2.9,13,1.6,16
2018/11/14 4:06,2.9,15,2.9,13,7,16
2018/11/14 4:07,3.1,15,3.1,15,6.3,16
2018/11/14 4:08,3,16,3.1,15,4.3,16
2018/11/14 4:09,3,16,3,15,4.7,16
2018/11/14 4:10,3,16,3,15,5.7,15
2018/11/14 4:11,3,16,3.1,15,5,16
2018/11/14 4:12,2.8,16,3,15,2.9,15
2018/11/14 4:13,2.5,16,2.7,15,2.5,16
2018/11/14 4:14,2.5,15,2.5,15,2.6,14
2018/11/14 4:15,2.6,15,2.6,15,2.6,14
2018/11/14 4:16,2.2,15,2.6,15,0.8,15
2018/11/14 4:17,2,15,2.2,15,3,15
2018/11/14 4:18,1.9,15,2,15,2,16
2018/11/14 4:19,1.7,15,1.9,15,2.2,16
2018/11/14 4:20,1.5,15,1.7,15,1.5,15
2018/11/14 4:21,1.2,15,1.4,16,1.6,14
2018/11/14 4:22,1.2,14,1.2,16,2.9,12
2018/11/14 4:23,1.2,14,1.2,15,3.5,10
2018/11/14 4:24,1.2,14,1.2,15,6.2,16
2018/11/14 4:25,1.7,14,1.7,15,8.6,16
2018/11/14 4:26,2,14,2,15,6.1,1
2018/11/14 4:27,2,15,2.1,14,4.7,15
2018/11/14 4:28,2,15,2,14,1.3,3
2018/11/14 4:29,2,15,2,14,5,15
2018/11/14 4:30,2,15,2,14,2,16
2018/11/14 4:31,1.9,15,2,14,0.9,11
2018/11/14 4:32,1.9,16,1.9,14,1.4,16
2018/11/14 4:33,1.9,16,1.9,14,2.9,14
2018/11/14 4:34,1.8,15,1.9,14,2.9,12
2018/11/14 4:35,1.3,15,1.8,14,1.3,16
2018/11/14 4:36,1.3,15,1.3,14,6.3,14
2018/11/14 4:37,1.5,15,1.5,15,6.5,16
2018/11/14 4:38,1.7,15,1.7,15,4.1,16
2018/11/14 4:39,1.7,15,1.8,15,4.4,1
2018/11/14 4:40,1.8,15,1.8,15,2.2,16
2018/11/14 4:41,1.9,15,1.9,15,3.7,9
2018/11/14 4:42,1.9,15,1.9,16,2.2,9
2018/11/14 4:43,2.2,15,2.2,15,11,15
2018/11/14 4:44,2.7,15,2.7,15,9.9,16
2018/11/14 4:45,3.2,15,3.2,15,10.6,15
2018/11/14 4:46,3.5,16,3.5,15,8.2,1
2018/11/14 4:47,3.2,16,3.4,15,3.5,1
2018/11/14 4:48,3.1,16,3.2,15,3.6,1
2018/11/14 4:49,3.2,16,3.2,15,6.8,15
2018/11/14 4:50,3.3,16,3.3,15,4.1,1
2018/11/14 4:51,3.4,16,3.4,15,3.7,1
2018/11/14 4:52,3.7,16,3.7,16,6.3,16
2018/11/14 4:53,3.9,16,3.9,16,6.7,14
2018/11/14 4:54,3.6,16,3.8,16,7.5,15
2018/11/14 4:55,3.2,16,3.6,16,5.5,15
2018/11/14 4:56,3.1,16,3.1,16,7.9,16
2018/11/14 4:57,3.4,16,3.4,16,9.7,14
2018/11/14 4:58,3.6,16,3.6,16,6.4,14
2018/11/14 4:59,3.7,16,3.7,16,6.1,15
2018/11/14 5:00,3.8,16,3.8,16,7.6,14
2018/11/14 5:01,4,15,4,16,6.8,15
2018/11/14 5:02,3.9,16,4,16,6.9,15
2018/11/14 5:03,3.9,16,3.9,16,7.1,16
2018/11/14 5:04,3.9,16,3.9,16,6.2,1
2018/11/14 5:05,4.1,16,4.1,16,6.4,15
2018/11/14 5:06,4.1,16,4.2,16,6,15
2018/11/14 5:07,4.1,16,4.2,16,9.9,15
2018/11/14 5:08,4.4,16,4.4,16,11.9,15
2018/11/14 5:09,4.8,16,4.8,16,12.8,15
2018/11/14 5:10,5,16,5,16,9.7,14
2018/11/14 5:11,5,16,5,16,6.7,15
2018/11/14 5:12,5.1,15,5.1,15,7.8,15
2018/11/14 5:13,5.3,15,5.3,15,10.6,1
2018/11/14 5:14,5.2,15,5.3,15,7.9,15
2018/11/14 5:15,5.1,15,5.2,15,5.5,15
2018/11/14 5:16,5,15,5.1,15,5.5,16
2018/11/14 5:17,4.9,15,5,15,9,15
2018/11/14 5:18,4.6,15,4.9,15,6.4,15
2018/11/14 5:19,4.2,15,4.5,15,6,14
2018/11/14 5:20,3.8,15,4.1,15,5.7,14
2018/11/14 5:21,3.5,16,3.8,15,3,1
2018/11/14 5:22,3.3,15,3.5,15,3.8,14
2018/11/14 5:23,2.7,15,3.3,15,2.9,14
2018/11/14 5:24,2.6,15,2.7,15,3.8,15
2018/11/14 5:25,2.7,15,2.7,15,7.7,16
2018/11/14 5:26,3.1,15,3.1,15,10.5,15
2018/11/14 5:27,3.5,15,3.5,15,14.2,15
2018/11/14 5:28,3.7,15,3.7,15,13.9,14
2018/11/14 5:29,3.7,15,3.8,15,5.2,16
2018/11/14 5:30,3.7,15,3.7,15,4.4,16
2018/11/14 5:31,4,15,4,15,4.9,2
2018/11/14 5:32,3.8,15,3.9,15,1.1,3
2018/11/14 5:33,3.8,15,3.8,15,2.7,14
2018/11/14 5:34,3.9,16,3.9,15,3.1,16
2018/11/14 5:35,3.7,15,3.8,15,5.4,14
2018/11/14 5:36,3.3,15,3.7,15,5.6,14
2018/11/14 5:37,2.7,15,3.3,15,3.8,14
2018/11/14 5:38,2.4,15,2.6,15,6.4,16
2018/11/14 5:39,2.4,16,2.5,15,5.1,1
2018/11/14 5:40,2.4,16,2.4,15,3.5,16
2018/11/14 5:41,2.4,16,2.4,15,5.8,1
2018/11/14 5:42,2.5,16,2.5,15,3,2
2018/11/14 5:43,2.5,16,2.5,15,3.5,14
2018/11/14 5:44,2.6,15,2.6,16,4.2,15
2018/11/14 5:45,2.4,15,2.6,15,3,14
2018/11/14 5:46,2.4,15,2.4,15,3.1,1
2018/11/14 5:47,2.3,16,2.4,15,3.7,14
2018/11/14 5:48,2,16,2.3,16,1.6,1
2018/11/14 5:49,1.8,16,2,16,1.6,3
2018/11/14 5:50,1.7,16,1.8,16,2,8
2018/11/14 5:51,1.4,15,1.7,16,1,12
2018/11/14 5:52,1.3,15,1.4,16,0.9,11
2018/11/14 5:53,1.3,15,1.3,16,3.1,15
2018/11/14 5:54,1.3,15,1.3,15,3.6,11
2018/11/14 5:55,1.4,15,1.4,15,3.3,12
2018/11/14 5:56,1.4,14,1.4,15,2.6,12
2018/11/14 5:57,1.3,13,1.4,16,2.9,11
2018/11/14 5:58,1.3,12,1.3,16,2,12
2018/11/14 5:59,1.3,12,1.3,16,2.9,11
2018/11/14 6:00,1.3,12,1.4,16,2.6,7
2018/11/14 6:01,1.3,12,1.3,15,1,13
2018/11/14 6:02,1.4,12,1.4,15,2.4,15
2018/11/14 6:03,1.5,12,1.5,12,6.3,16
2018/11/14 6:04,1.6,13,1.6,13,6.1,15
2018/11/14 6:05,1.6,14,1.6,13,5,16
2018/11/14 6:06,1.6,14,1.6,13,3.1,16
2018/11/14 6:07,1.6,15,1.6,13,2.5,16
2018/11/14 6:08,1.7,15,1.7,15,3.5,14
2018/11/14 6:09,1.7,15,1.7,15,1.9,12
2018/11/14 6:10,1.8,15,1.8,15,2.9,13
2018/11/14 6:11,2,14,2,14,3.9,13
2018/11/14 6:12,2.3,14,2.3,14,11.1,14
2018/11/14 6:13,2.3,14,2.5,14,6.4,14
2018/11/14 6:14,2.2,14,2.3,14,2.7,3
2018/11/14 6:15,2.1,13,2.2,14,3,8
2018/11/14 6:16,2.1,13,2.1,14,5.1,8
2018/11/14 6:17,2,12,2,14,1.6,8
2018/11/14 6:18,2,12,2,14,3,1
2018/11/14 6:19,2.1,13,2.1,14,3.5,1
2018/11/14 6:20,2,14,2.1,14,2.5,16
2018/11/14 6:21,2,16,2,14,5.4,1
2018/11/14 6:22,1.8,1,2,14,4.3,14
2018/11/14 6:23,1.7,1,1.7,14,4.4,14
2018/11/14 6:24,1.8,16,1.8,14,2.5,15
2018/11/14 6:25,1.7,16,1.8,13,2.1,2
2018/11/14 6:26,1.6,16,1.7,13,0.5,16
2018/11/14 6:27,1.5,16,1.6,13,1,7
2018/11/14 6:28,1.6,16,1.6,13,2.5,1
2018/11/14 6:29,1.5,16,1.6,13,2.5,1
2018/11/14 6:30,1.6,16,1.6,15,3.6,2
2018/11/14 6:31,1.8,16,1.8,16,6.8,10
2018/11/14 6:32,2.2,16,2.2,16,6.9,10
2018/11/14 6:33,2.1,16,2.2,16,5.4,9
2018/11/14 6:34,2.3,15,2.3,16,5.1,9
2018/11/14 6:35,2.3,11,2.3,16,4.5,9
2018/11/14 6:36,2.5,9,2.5,9,3.5,7
2018/11/14 6:37,2.4,9,2.5,9,0.6,10
2018/11/14 6:38,2.4,9,2.4,9,1.5,14
2018/11/14 6:39,2.4,10,2.4,9,2.6,10
2018/11/14 6:40,2.3,10,2.4,9,1.9,12
2018/11/14 6:41,1.8,10,2.3,9,1.6,1
2018/11/14 6:42,1.5,11,1.8,9,2.9,13
2018/11/14 6:43,1.4,11,1.5,9,2.4,12
2018/11/14 6:44,1.2,12,1.4,9,2,10
2018/11/14 6:45,1.1,12,1.1,9,2.6,2
2018/11/14 6:46,1.1,13,1.1,8,2,2
2018/11/14 6:47,1.2,13,1.2,9,2.1,7
2018/11/14 6:48,1.3,13,1.3,9,1.5,8
2018/11/14 6:49,1.2,13,1.3,10,1.8,10
2018/11/14 6:50,1.4,10,1.4,10,3.9,9
2018/11/14 6:51,1.5,9,1.5,10,3.8,10
2018/11/14 6:52,1.7,9,1.7,9,3.8,11
2018/11/14 6:53,1.8,9,1.8,9,3.6,11
2018/11/14 6:54,2,9,2,9,3.9,11
2018/11/14 6:55,2,10,2.1,9,5,12
2018/11/14 6:56,2,10,2,9,1.8,12
2018/11/14 6:57,2,10,2,9,4.1,15
2018/11/14 6:58,2.1,11,2.1,9,4.5,15
2018/11/14 6:59,2.2,11,2.2,11,3.2,13
2018/11/14 7:00,2,12,2.2,11,2.4,4
2018/11/14 7:01,1.9,12,2,11,2.6,5
2018/11/14 7:02,1.7,12,1.9,11,1.8,3
2018/11/14 7:03,1.5,12,1.7,11,1.5,8
2018/11/14 7:04,1.3,12,1.5,11,2.2,9
2018/11/14 7:05,1.4,10,1.4,11,4.5,11
2018/11/14 7:06,1.7,10,1.7,11,5,10
2018/11/14 7:07,2,10,2,11,5,12
2018/11/14 7:08,2,10,2,11,3.6,10
2018/11/14 7:09,2.1,10,2.1,12,5.1,14
2018/11/14 7:10,2.5,11,2.5,10,9.1,14
2018/11/14 7:11,2.7,11,2.7,11,4.8,11
2018/11/14 7:12,2.9,12,2.9,12,4.4,13
2018/11/14 7:13,3,12,3,12,3.5,12
2018/11/14 7:14,3.1,12,3.1,12,4.8,13
2018/11/14 7:15,3.1,12,3.2,12,5.6,13
2018/11/14 7:16,2.9,12,3.1,12,4.1,10
2018/11/14 7:17,2.7,12,2.9,12,3.3,10
2018/11/14 7:18,2.7,13,2.7,12,3.6,13
2018/11/14 7:19,2.7,13,2.7,12,3.9,13
2018/11/14 7:20,2.3,13,2.7,12,3.2,12
2018/11/14 7:21,2.3,13,2.3,12,5.4,13
2018/11/14 7:22,2.3,13,2.3,12,5.5,14
2018/11/14 7:23,2.4,13,2.4,12,3.9,12
2018/11/14 7:24,2.4,13,2.5,12,4.7,13
2018/11/14 7:25,2.5,13,2.5,12,4.4,13
2018/11/14 7:26,2.5,13,2.5,12,3.6,12
2018/11/14 7:27,2.5,13,2.5,12,3.6,12
2018/11/14 7:28,2.6,13,2.6,13,4.4,13
2018/11/14 7:29,2.4,13,2.5,13,3,14
2018/11/14 7:30,2.6,12,2.6,13,2.9,11
2018/11/14 7:31,2.5,12,2.6,13,3.8,12
2018/11/14 7:32,2.6,12,2.6,13,4.4,13
2018/11/14 7:33,2.7,12,2.7,12,5,12
2018/11/14 7:34,2.6,12,2.7,12,4.5,11
2018/11/14 7:35,2.6,12,2.6,12,4.2,12
2018/11/14 7:36,2.6,12,2.6,12,4.8,12
2018/11/14 7:37,2.7,12,2.7,12,5.5,15
2018/11/14 7:38,2.8,12,2.8,12,7.1,15
2018/11/14 7:39,2.8,12,2.8,12,3.6,16
2018/11/14 7:40,2.8,13,2.8,12,3.8,12
2018/11/14 7:41,2.8,13,2.9,13,3.5,11
2018/11/14 7:42,2.7,13,2.8,13,3.7,13
2018/11/14 7:43,2.7,13,2.7,13,4.5,15
2018/11/14 7:44,2.8,13,2.8,13,5.1,13
2018/11/14 7:45,2.9,13,2.9,13,5.2,11
2018/11/14 7:46,3.1,13,3.1,13,6.9,12
2018/11/14 7:47,3.3,13,3.3,13,6.1,10
2018/11/14 7:48,3.3,12,3.3,13,5.6,11
2018/11/14 7:49,3.4,12,3.4,12,4.9,11
2018/11/14 7:50,3.4,12,3.4,12,3.7,10
2018/11/14 7:51,3.4,12,3.4,12,4.7,10
2018/11/14 7:52,3.4,12,3.4,12,3.1,12
2018/11/14 7:53,3.3,12,3.4,12,3,12
2018/11/14 7:54,3.2,11,3.3,12,4.2,11
2018/11/14 7:55,3.1,11,3.2,12,3.6,11
2018/11/14 7:56,2.8,11,3.1,12,2.6,11
2018/11/14 7:57,2.5,11,2.7,12,3,13
2018/11/14 7:58,2.3,12,2.5,12,3.5,13
2018/11/14 7:59,2.3,12,2.3,12,3.2,13
2018/11/14 8:00,2.2,12,2.3,12,3.6,11
2018/11/14 8:01,2.2,12,2.2,12,4.1,8
2018/11/14 8:02,2.2,11,2.2,12,4.9,11
2018/11/14 8:03,2.1,12,2.2,12,4.8,11
2018/11/14 8:04,1.9,12,2.1,11,2.7,15
2018/11/14 8:05,1.8,12,1.9,11,2.5,12
2018/11/14 8:06,1.8,12,1.8,11,2.9,14
2018/11/14 8:07,1.8,12,1.8,11,2.5,13
2018/11/14 8:08,1.6,12,1.8,12,1.4,11
2018/11/14 8:09,1.5,13,1.6,12,1.3,15
2018/11/14 8:10,1.4,13,1.4,12,2.1,15
2018/11/14 8:11,1.3,14,1.4,12,1.8,16
2018/11/14 8:12,1.2,14,1.3,11,2.5,16
2018/11/14 8:13,1.2,14,1.2,12,1.5,15
2018/11/14 8:14,1.3,14,1.3,12,3.2,12
2018/11/14 8:15,1.4,14,1.4,12,3.6,11
2018/11/14 8:16,1.5,13,1.5,12,3.6,9
2018/11/14 8:17,1.6,13,1.6,12,4.4,10
2018/11/14 8:18,1.7,13,1.7,13,3.1,8
2018/11/14 8:19,1.8,12,1.8,12,4.8,9
2018/11/14 8:20,2,12,2,12,4.9,9
2018/11/14 8:21,2.3,11,2.3,11,5.7,10
2018/11/14 8:22,2.5,11,2.5,11,5,11
2018/11/14 8:23,2.7,10,2.7,10,3.9,10
2018/11/14 8:24,2.6,10,2.7,10,3.5,10
2018/11/14 8:25,2.6,10,2.6,10,3.1,11
2018/11/14 8:26,2.5,10,2.6,10,1.6,14
2018/11/14 8:27,2.3,10,2.4,10,1.6,11
2018/11/14 8:28,2.1,10,2.2,10,0.8,10
2018/11/14 8:29,2,11,2.1,10,2.5,11
2018/11/14 8:30,2.1,10,2.1,10,4.4,10
2018/11/14 8:31,1.8,11,2.1,10,2.7,10
2018/11/14 8:32,1.7,11,1.8,10,3.7,10
2018/11/14 8:33,1.6,11,1.7,10,3.9,11
2018/11/14 8:34,1.7,11,1.7,10,3.5,11
2018/11/14 8:35,1.7,11,1.7,10,3,11
2018/11/14 8:36,1.8,11,1.8,10,3.3,12
2018/11/14 8:37,1.9,11,1.9,10,2.9,13
2018/11/14 8:38,2,11,2,10,1.9,9
2018/11/14 8:39,1.9,11,2,11,0.8,12
2018/11/14 8:40,1.7,11,1.9,10,1.6,7
2018/11/14 8:41,1.7,11,1.7,11,2,9
2018/11/14 8:42,1.6,11,1.7,11,2.4,10
2018/11/14 8:43,1.5,10,1.5,11,3,9
2018/11/14 8:44,1.5,10,1.5,11,3.6,8
2018/11/14 8:45,1.4,10,1.4,11,3.2,8
2018/11/14 8:46,1.2,9,1.4,11,1.5,8
2018/11/14 8:47,1.1,9,1.2,11,2.7,8
2018/11/14 8:48,1.2,9,1.2,11,2.7,8
2018/11/14 8:49,1.4,9,1.4,11,2.9,8
2018/11/14 8:50,1.5,9,1.5,11,3.2,8
2018/11/14 8:51,1.6,9,1.6,11,3.3,8
2018/11/14 8:52,1.7,8,1.7,8,3,8
2018/11/14 8:53,1.7,8,1.7,8,2.5,8
2018/11/14 8:54,1.7,8,1.8,8,2.4,8
2018/11/14 8:55,1.6,8,1.7,8,1.3,8
2018/11/14 8:56,1.7,8,1.7,8,1.4,9
2018/11/14 8:57,1.6,9,1.7,8,2.1,11
2018/11/14 8:58,1.6,9,1.6,8,2.4,11
2018/11/14 8:59,1.6,9,1.6,8,2.4,11
2018/11/14 9:00,1.6,9,1.6,8,3.7,10
2018/11/14 9:01,1.4,10,1.5,8,1.5,8
2018/11/14 9:02,1.2,10,1.4,8,1.6,3
2018/11/14 9:03,1.1,10,1.2,8,1.3,6
2018/11/14 9:04,1,10,1.1,8,1.4,11
2018/11/14 9:05,1.1,10,1.1,8,2.7,12
2018/11/14 9:06,1.2,11,1.2,8,2.9,13
2018/11/14 9:07,1.3,11,1.3,9,2,11
2018/11/14 9:08,1.1,11,1.2,9,1.3,10
2018/11/14 9:09,1,10,1.1,9,2,10
2018/11/14 9:10,0.9,10,1,9,1.6,9
2018/11/14 9:11,1,10,1,10,1.8,10
2018/11/14 9:12,1,11,1.1,11,2,10
2018/11/14 9:13,1,11,1.1,11,2.2,9
2018/11/14 9:14,1,11,1,11,0.6,15
2018/11/14 9:15,0.8,12,1,11,0.4,14
2018/11/14 9:16,0.7,12,0.8,11,0.8,16
2018/11/14 9:17,0.6,13,0.6,11,1.1,16
2018/11/14 9:18,0.7,13,0.7,11,2.2,15
2018/11/14 9:19,0.6,13,0.7,11,0.6,16
2018/11/14 9:20,0.6,14,0.6,11,1.8,6
2018/11/14 9:21,0.6,16,0.6,11,1.8,6
2018/11/14 9:22,0.6,16,0.6,11,2,5
2018/11/14 9:23,0.7,1,0.7,11,1.4,3
2018/11/14 9:24,0.8,2,0.8,11,1.4,5
2018/11/14 9:25,0.8,2,0.8,12,1.8,16
2018/11/14 9:26,0.9,3,0.9,2,1.8,2
2018/11/14 9:27,1,4,1,4,2.5,6
2018/11/14 9:28,1.1,3,1.1,3,4.9,16
2018/11/14 9:29,1.2,3,1.2,3,3.3,1
2018/11/14 9:30,1.3,3,1.3,3,3,1
2018/11/14 9:31,1.3,2,1.3,3,2.9,16
2018/11/14 9:32,1.4,2,1.4,2,5.6,15
2018/11/14 9:33,1.6,1,1.6,1,7.2,16
2018/11/14 9:34,2,16,2,16,8.5,16
2018/11/14 9:35,2.3,16,2.3,16,6.7,1
2018/11/14 9:36,2.6,16,2.6,16,7.5,16
2018/11/14 9:37,3,16,3,16,8.2,15
2018/11/14 9:38,3.4,16,3.4,16,10.1,16
2018/11/14 9:39,3.6,16,3.6,16,6.4,16
2018/11/14 9:40,3.9,16,3.9,16,8.4,15
2018/11/14 9:41,4.2,16,4.2,16,6.8,15
2018/11/14 9:42,4.2,16,4.2,16,4.9,15
2018/11/14 9:43,4.1,16,4.2,16,4.9,15
2018/11/14 9:44,3.8,16,4.1,16,4.8,16
2018/11/14 9:45,3.6,15,3.8,16,3.3,15
2018/11/14 9:46,3.4,15,3.7,16,3.8,15
2018/11/14 9:47,3,15,3.4,16,1,14
2018/11/14 9:48,2.5,15,2.9,16,1.8,1
2018/11/14 9:49,2.3,15,2.4,16,4.9,12
2018/11/14 9:50,2.1,15,2.3,16,5.7,16
2018/11/14 9:51,2.2,15,2.2,16,7.2,14
2018/11/14 9:52,2.3,15,2.3,16,6.1,15
2018/11/14 9:53,2.5,15,2.5,16,7.7,16
2018/11/14 9:54,2.7,15,2.7,16,6.4,14
2018/11/14 9:55,3.1,15,3.1,15,7.2,16
2018/11/14 9:56,3.3,15,3.3,15,7.5,15
2018/11/14 9:57,3.6,15,3.6,15,6.9,1
2018/11/14 9:58,3.8,15,3.8,15,5.5,2
2018/11/14 9:59,4,16,4,16,5.5,1
2018/11/14 10:00,4.1,16,4.1,16,5.8,2
2018/11/14 10:01,4,16,4.1,16,5,1
2018/11/14 10:02,3.7,16,4,16,3.5,16
2018/11/14 10:03,3.3,1,3.7,16,2.2,1
2018/11/14 10:04,3.5,1,3.5,16,7,16
2018/11/14 10:05,3.3,1,3.4,16,6.3,1
2018/11/14 10:06,3.2,1,3.3,16,6.3,15
2018/11/14 10:07,3.2,1,3.2,16,8.3,15
2018/11/14 10:08,3.2,1,3.2,16,7,15
2018/11/14 10:09,3.2,1,3.3,16,5.6,16
2018/11/14 10:10,3.3,16,3.3,16,6.5,16
2018/11/14 10:11,3.2,16,3.3,16,4.9,16
2018/11/14 10:12,3.3,16,3.3,16,5,15
2018/11/14 10:13,3.5,16,3.5,1,6.1,15
2018/11/14 10:14,3.6,16,3.6,16,7.6,15
2018/11/14 10:15,3.6,16,3.7,16,5.7,16
2018/11/14 10:16,3.6,16,3.7,16,7.2,16
2018/11/14 10:17,3.6,16,3.7,16,5.5,16
2018/11/14 10:18,3.6,16,3.7,16,5.2,15
2018/11/14 10:19,3.6,16,3.6,16,7.2,16
2018/11/14 10:20,3.4,16,3.5,16,4.7,16
2018/11/14 10:21,3.4,16,3.5,16,5,16
2018/11/14 10:22,3.5,16,3.5,16,5.5,16
2018/11/14 10:23,3.4,16,3.5,16,3.8,16
2018/11/14 10:24,3.1,16,3.4,16,4.9,16
2018/11/14 10:25,3.1,16,3.1,16,5.8,15
2018/11/14 10:26,3,16,3.1,16,3.7,15
2018/11/14 10:27,2.8,15,3,16,2.7,14
2018/11/14 10:28,2.7,15,2.8,16,2.5,10
2018/11/14 10:29,2.7,14,2.8,16,4.5,10
2018/11/14 10:30,2.5,14,2.7,16,4.2,10
2018/11/14 10:31,2.5,13,2.5,16,3.5,12
2018/11/14 10:32,2.3,12,2.4,16,4.1,10
2018/11/14 10:33,2.4,12,2.4,16,5,8
2018/11/14 10:34,2.3,11,2.4,16,2.9,9
2018/11/14 10:35,2,10,2.3,16,2.5,6
2018/11/14 10:36,2.1,10,2.1,16,4.8,2
2018/11/14 10:37,2.1,9,2.1,15,4.7,2
2018/11/14 10:38,2.1,9,2.1,15,3.3,14
2018/11/14 10:39,1.9,8,2,14,3.1,3
2018/11/14 10:40,2,6,2,14,3.9,2
2018/11/14 10:41,2.2,4,2.2,13,6.3,1
2018/11/14 10:42,2.3,3,2.3,12,5.8,1